User: anonymous   Login
Location: Caltech
(34.1382°N, 118.1253°W)
Time: 15:14:58
(UTC-08:00)
Language:

Cosmos 2084 - Orbit

View from above orbital plane
View from above orbital plane
View from above satellite
View from above satellite

Ground track
Ground track

The orbit data is extracted from the following two-line orbital elements,

1 20663U 90055A   18050.72600796 +.00000047 +00000-0 +21995-4 0  9998
2 20663 062.7924 121.8107 0132055 114.3168 247.1782 14.91775806496726
Epoch (UTC): 19 February 2018 17:25:27
Eccentricity: 0.0132055
inclination: 62.7924°
perigee height: 500 km
apogee height: 684 km
right ascension of ascending node: 121.8107°
argument of perigee: 114.3168°
revolutions per day: 14.91775806
mean anomaly at epoch: 247.1782°
orbit number at epoch: 49672

The dashed part of the orbit path shows where the satellite is in the earth's shadow,  

DLR